{"data":{"norad_id":53134,"intl_designator":"2022-083C","name":"STARLINK-4150","alt_names":[],"object_type":"PAYLOAD","status":"ACTIVE","operator":null,"country":"US","launch_date":"2022-07-17","launch_site_code":"AFETR","launch_vehicle":null,"mission":null,"orbit_class":"UNKNOWN","rcs_meters":null,"size_class":null,"mass_kg":null,"dimensions":null,"purposes":["comms"],"wikipedia_slug":null,"has_3d_model":false,"image_url":null,"decayed_at":null,"tle_current":{"epoch":"2026-05-25T02:46:37.606656Z","epoch_age_seconds":61098,"freshness":"FRESH","line1":"1 53134U 22083C   26145.11571304 -.00001324  00000+0 -65116-4 0  9995","line2":"2 53134  53.2121 191.0307 0001667  66.5216 293.5951 15.08844114212756","mean_motion":15.08844114,"eccentricity":0.0001667,"inclination_deg":53.2121,"raan_deg":191.0307,"arg_perigee_deg":66.5216,"mean_anomaly_deg":293.5951,"bstar":-6.5116e-5,"rev_number":21275,"period_min":95.437294458637,"perigee_km":538.57760557589,"apogee_km":540.88402270512,"semimajor_km":6917.8678141405,"source":"CELESTRAK","updated_at":"2026-05-25T13:38:17.315706Z"}}}